Time,TemperatureF,DewpointF,PressureIn,WindDirection,WindDirectionDegrees,WindSpeedMPH,WindSpeedGustMPH,Humidity,HourlyPrecipIn,Conditions,Clouds,dailyrainin,SoftwareType,DateUTC
2013-02-24 00:01:00,18.3,14.8,30.01,SW,216,0.0,0.0,86,0.00,,,0.00,Wunderground v.1.15,2013-02-24 06:01:00,
2013-02-24 00:07:00,18.3,14.8,30.01,SW,216,0.0,0.0,86,0.00,,,0.00,Wunderground v.1.15,2013-02-24 06:07:00,
2013-02-24 00:12:00,18.1,14.6,30.01,SW,216,0.0,0.0,86,0.00,,,0.00,Wunderground v.1.15,2013-02-24 06:12:00,
2013-02-24 00:18:00,18.0,14.5,30.02,SW,216,0.0,0.0,86,0.00,,,0.00,Wunderground v.1.15,2013-02-24 06:18:00,
2013-02-24 00:23:00,17.7,14.2,30.02,SW,216,0.0,0.0,86,0.00,,,0.00,Wunderground v.1.15,2013-02-24 06:23:00,
2013-02-24 00:28:00,17.7,14.2,30.02,SW,216,0.0,0.0,86,0.00,,,0.00,Wunderground v.1.15,2013-02-24 06:28:00,
2013-02-24 00:34:00,17.3,14.1,30.03,SW,216,0.0,0.0,87,0.00,,,0.00,Wunderground v.1.15,2013-02-24 06:34:00,
2013-02-24 00:39:00,17.5,14.3,30.03,SW,216,0.0,0.0,87,0.00,,,0.00,Wunderground v.1.15,2013-02-24 06:39:00,
2013-02-24 00:45:00,17.8,14.8,30.03,SW,216,0.0,0.0,88,0.00,,,0.00,Wunderground v.1.15,2013-02-24 06:45:00,
2013-02-24 00:50:00,18.0,15.0,30.03,SW,216,0.0,0.0,88,0.00,,,0.00,Wunderground v.1.15,2013-02-24 06:50:00,
2013-02-24 00:56:00,17.7,14.5,30.03,SW,216,0.0,0.0,87,0.00,,,0.00,Wunderground v.1.15,2013-02-24 06:56:00,
2013-02-24 01:02:00,17.3,14.1,30.04,SW,216,0.0,0.0,87,0.00,,,0.00,Wunderground v.1.15,2013-02-24 07:02:00,
2013-02-24 01:07:00,17.5,14.6,30.04,SW,216,0.0,1.0,88,0.00,,,0.00,Wunderground v.1.15,2013-02-24 07:07:00,
2013-02-24 01:13:00,17.7,14.8,30.04,SW,216,0.0,0.0,88,0.00,,,0.00,Wunderground v.1.15,2013-02-24 07:13:00,
2013-02-24 01:19:00,17.7,14.8,30.04,SW,216,0.0,0.0,88,0.00,,,0.00,Wunderground v.1.15,2013-02-24 07:19:00,
2013-02-24 01:25:00,17.5,14.6,30.04,SW,216,0.0,0.0,88,0.00,,,0.00,Wunderground v.1.15,2013-02-24 07:25:00,
2013-02-24 01:30:00,17.3,14.4,30.04,SW,216,0.0,0.0,88,0.00,,,0.00,Wunderground v.1.15,2013-02-24 07:30:00,
2013-02-24 01:36:00,17.0,14.1,30.04,SW,216,0.0,0.0,88,0.00,,,0.00,Wunderground v.1.15,2013-02-24 07:36:00,
2013-02-24 01:41:00,16.7,13.8,30.04,SW,216,0.0,0.0,88,0.00,,,0.00,Wunderground v.1.15,2013-02-24 07:41:00,
2013-02-24 01:47:00,16.5,13.6,30.04,SW,216,0.0,0.0,88,0.00,,,0.00,Wunderground v.1.15,2013-02-24 07:47:00,
2013-02-24 01:52:00,16.5,13.6,30.04,SW,216,0.0,0.0,88,0.00,,,0.00,Wunderground v.1.15,2013-02-24 07:52:00,
2013-02-24 01:58:00,16.4,13.7,30.04,SW,216,0.0,0.0,89,0.00,,,0.00,Wunderground v.1.15,2013-02-24 07:58:00,
2013-02-24 02:03:00,16.4,13.7,30.05,SW,216,0.0,0.0,89,0.00,,,0.00,Wunderground v.1.15,2013-02-24 08:03:00,
2013-02-24 02:08:00,16.1,13.4,30.05,SW,216,0.0,0.0,89,0.00,,,0.00,Wunderground v.1.15,2013-02-24 08:08:00,
2013-02-24 02:13:00,15.9,13.2,30.05,SW,216,0.0,0.0,89,0.00,,,0.00,Wunderground v.1.15,2013-02-24 08:13:00,
2013-02-24 02:18:00,15.7,13.0,30.05,SW,216,0.0,0.0,89,0.00,,,0.00,Wunderground v.1.15,2013-02-24 08:18:00,
2013-02-24 02:23:00,15.7,13.0,30.05,SW,216,0.0,0.0,89,0.00,,,0.00,Wunderground v.1.15,2013-02-24 08:23:00,
2013-02-24 02:28:00,16.1,13.7,30.05,SW,216,0.0,0.0,90,0.00,,,0.00,Wunderground v.1.15,2013-02-24 08:28:00,
2013-02-24 02:33:00,16.2,13.8,30.04,SW,216,0.0,0.0,90,0.00,,,0.00,Wunderground v.1.15,2013-02-24 08:33:00,
2013-02-24 02:38:00,16.2,13.8,30.04,SW,216,0.0,0.0,90,0.00,,,0.00,Wunderground v.1.15,2013-02-24 08:38:00,
2013-02-24 02:43:00,16.5,14.1,30.04,SW,216,0.0,0.0,90,0.00,,,0.00,Wunderground v.1.15,2013-02-24 08:43:00,
2013-02-24 02:48:00,16.5,14.1,30.04,SW,216,0.0,0.0,90,0.00,,,0.00,Wunderground v.1.15,2013-02-24 08:48:00,
2013-02-24 02:53:00,16.5,14.1,30.04,SW,216,0.0,0.0,90,0.00,,,0.00,Wunderground v.1.15,2013-02-24 08:53:00,
2013-02-24 02:58:00,16.7,14.3,30.04,SW,216,0.0,0.0,90,0.00,,,0.00,Wunderground v.1.15,2013-02-24 08:58:00,
2013-02-24 03:03:00,16.9,14.5,30.04,SW,216,0.0,0.0,90,0.00,,,0.00,Wunderground v.1.15,2013-02-24 09:03:00,
2013-02-24 03:08:00,16.9,14.5,30.04,SW,216,0.0,0.0,90,0.00,,,0.00,Wunderground v.1.15,2013-02-24 09:08:00,
2013-02-24 03:13:00,16.9,14.5,30.04,SW,216,0.0,0.0,90,0.00,,,0.00,Wunderground v.1.15,2013-02-24 09:13:00,
2013-02-24 03:18:00,16.7,14.3,30.04,SW,216,0.0,0.0,90,0.00,,,0.00,Wunderground v.1.15,2013-02-24 09:18:00,
2013-02-24 03:23:00,16.7,14.3,30.04,SW,216,0.0,0.0,90,0.00,,,0.00,Wunderground v.1.15,2013-02-24 09:23:00,
2013-02-24 03:28:00,16.4,13.7,30.04,SW,216,0.0,0.0,89,0.00,,,0.00,Wunderground v.1.15,2013-02-24 09:28:00,
2013-02-24 03:33:00,16.2,13.8,30.04,SW,216,0.0,0.0,90,0.00,,,0.00,Wunderground v.1.15,2013-02-24 09:33:00,
2013-02-24 03:38:00,16.1,13.7,30.04,SW,216,0.0,0.0,90,0.00,,,0.00,Wunderground v.1.15,2013-02-24 09:38:00,
2013-02-24 03:43:00,16.1,13.7,30.04,SW,216,0.0,0.0,90,0.00,,,0.00,Wunderground v.1.15,2013-02-24 09:43:00,
2013-02-24 03:48:00,15.7,13.0,30.05,SW,216,0.0,0.0,89,0.00,,,0.00,Wunderground v.1.15,2013-02-24 09:48:00,
2013-02-24 03:53:00,15.6,13.2,30.05,SW,216,0.0,0.0,90,0.00,,,0.00,Wunderground v.1.15,2013-02-24 09:53:00,
2013-02-24 03:58:00,15.6,13.2,30.05,SW,216,0.0,0.0,90,0.00,,,0.00,Wunderground v.1.15,2013-02-24 09:58:00,
2013-02-24 04:03:00,15.6,13.2,30.05,SW,216,0.0,0.0,90,0.00,,,0.00,Wunderground v.1.15,2013-02-24 10:03:00,
2013-02-24 04:08:00,15.6,13.2,30.05,SW,216,0.0,0.0,90,0.00,,,0.00,Wunderground v.1.15,2013-02-24 10:08:00,
2013-02-24 04:13:00,15.6,13.2,30.05,SW,216,0.0,0.0,90,0.00,,,0.00,Wunderground v.1.15,2013-02-24 10:13:00,
2013-02-24 04:18:00,15.6,13.2,30.05,SW,216,0.0,0.0,90,0.00,,,0.00,Wunderground v.1.15,2013-02-24 10:18:00,
2013-02-24 04:23:00,15.6,13.2,30.05,SW,216,0.0,0.0,90,0.00,,,0.00,Wunderground v.1.15,2013-02-24 10:23:00,
2013-02-24 04:28:00,15.7,13.3,30.05,SW,216,0.0,0.0,90,0.00,,,0.00,Wunderground v.1.15,2013-02-24 10:28:00,
2013-02-24 04:33:00,15.7,13.3,30.06,SW,216,0.0,0.0,90,0.00,,,0.00,Wunderground v.1.15,2013-02-24 10:33:00,
2013-02-24 04:38:00,15.4,13.0,30.06,SW,216,0.0,0.0,90,0.00,,,0.00,Wunderground v.1.15,2013-02-24 10:38:00,
2013-02-24 04:43:00,15.4,13.0,30.06,SW,216,0.0,2.0,90,0.00,,,0.00,Wunderground v.1.15,2013-02-24 10:43:00,
2013-02-24 04:48:00,15.6,13.4,30.07,SW,216,0.0,2.0,91,0.00,,,0.00,Wunderground v.1.15,2013-02-24 10:48:00,
2013-02-24 04:53:00,15.4,13.0,30.07,SW,216,0.0,0.0,90,0.00,,,0.00,Wunderground v.1.15,2013-02-24 10:53:00,
2013-02-24 04:58:00,15.6,13.2,30.07,SW,216,0.0,0.0,90,0.00,,,0.00,Wunderground v.1.15,2013-02-24 10:58:00,
2013-02-24 05:03:00,15.7,13.5,30.07,SW,216,0.0,0.0,91,0.00,,,0.00,Wunderground v.1.15,2013-02-24 11:03:00,
2013-02-24 05:08:00,16.1,13.9,30.07,SW,216,0.0,1.0,91,0.00,,,0.00,Wunderground v.1.15,2013-02-24 11:08:00,
2013-02-24 05:13:00,16.2,14.0,30.07,SW,216,0.0,1.0,91,0.00,,,0.00,Wunderground v.1.15,2013-02-24 11:13:00,
2013-02-24 05:18:00,16.4,14.2,30.09,SW,216,0.0,1.0,91,0.00,,,0.00,Wunderground v.1.15,2013-02-24 11:18:00,
2013-02-24 05:23:00,16.4,14.0,30.09,SW,216,0.0,0.0,90,0.00,,,0.00,Wunderground v.1.15,2013-02-24 11:23:00,
2013-02-24 05:28:00,16.1,13.4,30.09,SW,216,0.0,0.0,89,0.00,,,0.00,Wunderground v.1.15,2013-02-24 11:28:00,
2013-02-24 05:33:00,15.9,13.2,30.09,SW,216,0.0,0.0,89,0.00,,,0.00,Wunderground v.1.15,2013-02-24 11:33:00,
2013-02-24 05:38:00,15.7,13.0,30.09,SW,216,0.0,0.0,89,0.00,,,0.00,Wunderground v.1.15,2013-02-24 11:38:00,
2013-02-24 05:43:00,15.6,12.9,30.09,SW,216,0.0,0.0,89,0.00,,,0.00,Wunderground v.1.15,2013-02-24 11:43:00,
2013-02-24 05:48:00,15.2,12.5,30.09,SW,216,0.0,0.0,89,0.00,,,0.00,Wunderground v.1.15,2013-02-24 11:48:00,
2013-02-24 05:53:00,15.1,12.4,30.09,SW,216,0.0,0.0,89,0.00,,,0.00,Wunderground v.1.15,2013-02-24 11:53:00,
2013-02-24 05:58:00,14.9,12.2,30.09,SW,216,0.0,0.0,89,0.00,,,0.00,Wunderground v.1.15,2013-02-24 11:58:00,
2013-02-24 06:03:00,14.8,12.1,30.09,SW,216,0.0,0.0,89,0.00,,,0.00,Wunderground v.1.15,2013-02-24 12:03:00,
2013-02-24 06:08:00,14.6,11.9,30.09,SW,216,0.0,0.0,89,0.00,,,0.00,Wunderground v.1.15,2013-02-24 12:08:00,
2013-02-24 06:13:00,14.3,11.7,30.09,SW,216,0.0,0.0,89,0.00,,,0.00,Wunderground v.1.15,2013-02-24 12:13:00,
2013-02-24 06:18:00,14.1,11.5,30.09,SW,216,0.0,0.0,89,0.00,,,0.00,Wunderground v.1.15,2013-02-24 12:18:00,
2013-02-24 06:23:00,14.0,11.4,30.09,SW,216,0.0,0.0,89,0.00,,,0.00,Wunderground v.1.15,2013-02-24 12:23:00,
2013-02-24 06:28:00,13.6,11.0,30.09,SW,216,0.0,0.0,89,0.00,,,0.00,Wunderground v.1.15,2013-02-24 12:28:00,
2013-02-24 06:33:00,13.3,10.7,30.09,SW,216,0.0,0.0,89,0.00,,,0.00,Wunderground v.1.15,2013-02-24 12:33:00,
2013-02-24 06:38:00,12.9,10.3,30.09,SW,216,0.0,0.0,89,0.00,,,0.00,Wunderground v.1.15,2013-02-24 12:38:00,
2013-02-24 06:43:00,12.8,10.2,30.09,SW,216,0.0,0.0,89,0.00,,,0.00,Wunderground v.1.15,2013-02-24 12:43:00,
2013-02-24 06:48:00,12.4,9.8,30.10,WSW,253,0.0,0.0,89,0.00,,,0.00,Wunderground v.1.15,2013-02-24 12:48:00,
2013-02-24 06:53:00,12.4,9.8,30.10,WSW,254,0.0,0.0,89,0.00,,,0.00,Wunderground v.1.15,2013-02-24 12:53:00,
2013-02-24 06:58:00,12.4,9.8,30.10,WSW,254,0.0,0.0,89,0.00,,,0.00,Wunderground v.1.15,2013-02-24 12:58:00,
2013-02-24 07:03:00,12.4,9.8,30.11,WSW,254,0.0,0.0,89,0.00,,,0.00,Wunderground v.1.15,2013-02-24 13:03:00,
2013-02-24 07:08:00,12.6,10.0,30.11,WSW,254,0.0,0.0,89,0.00,,,0.00,Wunderground v.1.15,2013-02-24 13:08:00,
2013-02-24 07:13:00,12.8,10.2,30.11,WSW,254,0.0,0.0,89,0.00,,,0.00,Wunderground v.1.15,2013-02-24 13:13:00,
2013-02-24 07:18:00,13.3,10.7,30.13,WSW,254,0.0,0.0,89,0.00,,,0.00,Wunderground v.1.15,2013-02-24 13:18:00,
2013-02-24 07:23:00,13.8,11.4,30.13,WSW,254,0.0,0.0,90,0.00,,,0.00,Wunderground v.1.15,2013-02-24 13:23:00,
2013-02-24 07:28:00,14.1,11.5,30.13,North,6,0.0,0.0,89,0.00,,,0.00,Wunderground v.1.15,2013-02-24 13:28:00,
2013-02-24 07:33:00,14.6,11.9,30.13,North,6,0.0,0.0,89,0.00,,,0.00,Wunderground v.1.15,2013-02-24 13:33:00,
2013-02-24 07:38:00,15.1,12.4,30.13,North,6,0.0,1.0,89,0.00,,,0.00,Wunderground v.1.15,2013-02-24 13:38:00,
2013-02-24 07:44:00,15.4,12.7,30.13,North,7,0.0,0.0,89,0.00,,,0.00,Wunderground v.1.15,2013-02-24 13:44:00,
2013-02-24 07:49:00,16.4,13.7,30.14,NNE,17,0.0,1.0,89,0.00,,,0.00,Wunderground v.1.15,2013-02-24 13:49:00,
2013-02-24 07:54:00,17.3,14.6,30.14,NNE,17,0.0,0.0,89,0.00,,,0.00,Wunderground v.1.15,2013-02-24 13:54:00,
2013-02-24 07:59:00,18.0,15.3,30.14,NNE,17,0.0,0.0,89,0.00,,,0.00,Wunderground v.1.15,2013-02-24 13:59:00,
2013-02-24 08:04:00,19.1,16.1,30.14,NNE,17,0.0,1.0,88,0.00,,,0.00,Wunderground v.1.15,2013-02-24 14:04:00,
2013-02-24 08:09:00,18.9,15.7,30.14,SSE,158,0.0,2.0,87,0.00,,,0.00,Wunderground v.1.15,2013-02-24 14:09:00,
2013-02-24 08:14:00,19.4,15.9,30.14,SSE,158,0.0,1.0,86,0.00,,,0.00,Wunderground v.1.15,2013-02-24 14:14:00,
2013-02-24 08:19:00,19.7,15.9,30.15,SSW,210,0.0,2.0,85,0.00,,,0.00,Wunderground v.1.15,2013-02-24 14:19:00,
2013-02-24 08:24:00,20.0,15.9,30.15,SSW,208,0.0,6.0,84,0.00,,,0.00,Wunderground v.1.15,2013-02-24 14:24:00,
2013-02-24 08:29:00,20.5,16.2,30.15,SSW,208,2.0,6.0,83,0.00,,,0.00,Wunderground v.1.15,2013-02-24 14:29:00,
2013-02-24 08:34:00,21.0,16.6,30.15,SSW,208,0.0,3.0,83,0.00,,,0.00,Wunderground v.1.15,2013-02-24 14:34:00,
2013-02-24 08:39:00,21.1,16.7,30.15,SSW,208,2.0,5.0,83,0.00,,,0.00,Wunderground v.1.15,2013-02-24 14:39:00,
2013-02-24 08:44:00,21.1,16.7,30.15,SSW,193,2.0,3.0,83,0.00,,,0.00,Wunderground v.1.15,2013-02-24 14:44:00,
2013-02-24 08:49:00,21.1,16.7,30.15,SSW,192,1.0,3.0,83,0.00,,,0.00,Wunderground v.1.15,2013-02-24 14:49:00,
2013-02-24 08:54:00,21.1,16.7,30.15,SSW,192,1.0,1.0,83,0.00,,,0.00,Wunderground v.1.15,2013-02-24 14:54:00,
2013-02-24 08:59:00,-999.9,-99.9,30.15,North,32767,-999.0,1.0,255,-99.99,,,0.00,Wunderground v.1.15,2013-02-24 14:59:00,
2013-02-24 09:04:00,-999.9,-99.9,30.14,North,32767,-999.0,-999.0,255,-99.99,,,0.00,Wunderground v.1.15,2013-02-24 15:04:00,
2013-02-24 09:09:00,-999.9,-99.9,30.14,North,32767,-999.0,-999.0,255,-99.99,,,0.00,Wunderground v.1.15,2013-02-24 15:09:00,
2013-02-24 09:14:00,-999.9,-99.9,30.14,SSW,195,0.0,0.0,255,0.00,,,0.00,Wunderground v.1.15,2013-02-24 15:14:00,
2013-02-24 09:19:00,-999.9,-99.9,30.14,SSW,195,0.0,0.0,255,0.00,,,0.00,Wunderground v.1.15,2013-02-24 15:19:00,
2013-02-24 09:24:00,27.2,19.0,30.14,SSW,195,0.0,1.0,71,0.00,,,0.00,Wunderground v.1.15,2013-02-24 15:24:00,
2013-02-24 09:29:00,27.9,19.7,30.14,SSW,195,0.0,1.0,71,0.00,,,0.00,Wunderground v.1.15,2013-02-24 15:29:00,
2013-02-24 09:34:00,28.1,18.5,30.13,SSW,193,0.0,1.0,67,0.00,,,0.00,Wunderground v.1.15,2013-02-24 15:34:00,
2013-02-24 09:39:00,28.4,18.8,30.13,SSW,193,0.0,1.0,67,0.00,,,0.00,Wunderground v.1.15,2013-02-24 15:39:00,
2013-02-24 09:44:00,29.3,19.7,30.13,SSW,193,0.0,0.0,67,0.00,,,0.00,Wunderground v.1.15,2013-02-24 15:44:00,
2013-02-24 09:49:00,29.7,19.0,30.13,SE,138,2.0,3.0,64,0.00,,,0.00,Wunderground v.1.15,2013-02-24 15:49:00,
2013-02-24 09:54:00,30.0,20.0,30.13,ESE,107,2.0,2.0,66,0.00,,,0.01,Wunderground v.1.15,2013-02-24 15:54:00,
2013-02-24 09:59:00,29.8,19.1,30.13,ESE,113,2.0,3.0,64,0.00,,,0.01,Wunderground v.1.15,2013-02-24 15:59:00,
2013-02-24 10:04:00,30.1,19.4,30.13,ESE,112,0.0,3.0,64,0.00,,,0.01,Wunderground v.1.15,2013-02-24 16:04:00,
2013-02-24 10:09:00,30.1,19.4,30.13,East,93,2.0,3.0,64,0.00,,,0.01,Wunderground v.1.15,2013-02-24 16:09:00,
2013-02-24 10:14:00,30.1,19.4,30.13,East,93,2.0,2.0,64,0.00,,,0.01,Wunderground v.1.15,2013-02-24 16:14:00,
2013-02-24 10:19:00,-999.9,-99.9,30.13,North,32767,-999.0,2.0,255,-99.99,,,0.01,Wunderground v.1.15,2013-02-24 16:19:00,
2013-02-24 10:24:00,-999.9,-99.9,30.13,North,32767,-999.0,-999.0,255,-99.99,,,0.01,Wunderground v.1.15,2013-02-24 16:24:00,
2013-02-24 10:29:00,-999.9,-99.9,30.13,North,32767,-999.0,-999.0,255,-99.99,,,0.01,Wunderground v.1.15,2013-02-24 16:29:00,
2013-02-24 10:34:00,-999.9,-99.9,30.14,North,32767,-999.0,-999.0,255,-99.99,,,0.01,Wunderground v.1.15,2013-02-24 16:34:00,
2013-02-24 10:39:00,-999.9,-99.9,30.14,North,32767,-999.0,-999.0,255,-99.99,,,0.01,Wunderground v.1.15,2013-02-24 16:39:00,
2013-02-24 10:44:00,-999.9,-99.9,30.14,North,32767,-999.0,-999.0,255,-99.99,,,0.01,Wunderground v.1.15,2013-02-24 16:44:00,
2013-02-24 10:49:00,-999.9,-99.9,30.14,North,32767,-999.0,-999.0,255,-99.99,,,0.01,Wunderground v.1.15,2013-02-24 16:49:00,
2013-02-24 10:54:00,-999.9,-99.9,30.14,North,32767,-999.0,-999.0,255,-99.99,,,0.01,Wunderground v.1.15,2013-02-24 16:54:00,
2013-02-24 10:59:00,-999.9,-99.9,30.14,North,32767,-999.0,-999.0,255,-99.99,,,0.01,Wunderground v.1.15,2013-02-24 16:59:00,
2013-02-24 11:04:00,-999.9,-99.9,30.13,North,32767,-999.0,-999.0,255,-99.99,,,0.01,Wunderground v.1.15,2013-02-24 17:04:00,
2013-02-24 11:09:00,-999.9,-99.9,30.13,North,32767,-999.0,-999.0,255,-99.99,,,0.01,Wunderground v.1.15,2013-02-24 17:09:00,
2013-02-24 11:14:00,-999.9,-99.9,30.13,North,32767,-999.0,-999.0,255,-99.99,,,0.01,Wunderground v.1.15,2013-02-24 17:14:00,
2013-02-24 11:19:00,-999.9,-99.9,30.14,North,32767,-999.0,-999.0,255,-99.99,,,0.01,Wunderground v.1.15,2013-02-24 17:19:00,
2013-02-24 11:24:00,-999.9,-99.9,30.14,East,85,6.0,6.0,255,-99.99,,,0.01,Wunderground v.1.15,2013-02-24 17:24:00,
2013-02-24 11:29:00,-999.9,-99.9,30.14,East,85,6.0,6.0,255,-99.99,,,0.01,Wunderground v.1.15,2013-02-24 17:29:00,
2013-02-24 11:34:00,-999.9,-99.9,30.14,East,85,6.0,6.0,255,-99.99,,,0.01,Wunderground v.1.15,2013-02-24 17:34:00,
2013-02-24 11:39:00,-999.9,-99.9,30.14,North,32767,-999.0,6.0,255,-99.99,,,0.01,Wunderground v.1.15,2013-02-24 17:39:00,
2013-02-24 11:45:00,-999.9,-99.9,30.14,North,32767,-999.0,-999.0,255,-99.99,,,0.01,Wunderground v.1.15,2013-02-24 17:45:00,
2013-02-24 11:50:00,-999.9,-99.9,30.14,North,32767,-999.0,-999.0,255,-99.99,,,0.01,Wunderground v.1.15,2013-02-24 17:50:00,
2013-02-24 11:55:00,-999.9,-99.9,30.14,North,32767,-999.0,-999.0,255,-99.99,,,0.01,Wunderground v.1.15,2013-02-24 17:55:00,
2013-02-24 12:00:00,-999.9,-99.9,30.14,North,32767,-999.0,-999.0,255,-99.99,,,0.01,Wunderground v.1.15,2013-02-24 18:00:00,
2013-02-24 12:05:00,-999.9,-99.9,30.14,North,32767,-999.0,-999.0,255,-99.99,,,0.01,Wunderground v.1.15,2013-02-24 18:05:00,
2013-02-24 12:10:00,-999.9,-99.9,30.14,North,32767,-999.0,-999.0,255,-99.99,,,0.01,Wunderground v.1.15,2013-02-24 18:10:00,
2013-02-24 12:15:00,-999.9,-99.9,30.14,North,32767,-999.0,-999.0,255,-99.99,,,0.01,Wunderground v.1.15,2013-02-24 18:15:00,
2013-02-24 12:20:00,-999.9,-99.9,30.14,North,32767,-999.0,-999.0,255,-99.99,,,0.01,Wunderground v.1.15,2013-02-24 18:20:00,
2013-02-24 12:25:00,-999.9,-99.9,30.14,North,32767,-999.0,-999.0,255,-99.99,,,0.01,Wunderground v.1.15,2013-02-24 18:25:00,
2013-02-24 12:30:00,37.2,22.9,30.14,SE,134,0.0,0.0,56,0.00,,,0.01,Wunderground v.1.15,2013-02-24 18:30:00,
2013-02-24 12:35:00,37.0,21.9,30.12,ESE,123,3.0,8.0,54,0.00,,,0.01,Wunderground v.1.15,2013-02-24 18:35:00,
2013-02-24 12:40:00,37.5,23.2,30.12,SSW,208,3.0,8.0,56,0.00,,,0.01,Wunderground v.1.15,2013-02-24 18:40:00,
2013-02-24 12:45:00,36.9,22.7,30.12,SSW,203,4.0,8.0,56,0.00,,,0.01,Wunderground v.1.15,2013-02-24 18:45:00,
2013-02-24 12:50:00,36.9,23.1,30.12,South,169,2.0,4.0,57,0.00,,,0.01,Wunderground v.1.15,2013-02-24 18:50:00,
2013-02-24 12:55:00,36.6,22.8,30.12,SSW,199,7.0,7.0,57,0.00,,,0.01,Wunderground v.1.15,2013-02-24 18:55:00,
2013-02-24 13:00:00,36.0,23.0,30.12,South,188,5.0,8.0,59,0.00,,,0.01,Wunderground v.1.15,2013-02-24 19:00:00,
2013-02-24 13:05:00,36.0,22.6,30.12,South,174,6.0,11.0,58,0.00,,,0.01,Wunderground v.1.15,2013-02-24 19:05:00,
2013-02-24 13:10:00,35.9,23.0,30.12,SW,216,10.0,11.0,59,0.00,,,0.01,Wunderground v.1.15,2013-02-24 19:10:00,
2013-02-24 13:15:00,35.9,23.0,30.12,SSW,205,5.0,11.0,59,0.00,,,0.01,Wunderground v.1.15,2013-02-24 19:15:00,
2013-02-24 13:20:00,36.2,22.8,30.12,SW,233,7.0,7.0,58,0.00,,,0.01,Wunderground v.1.15,2013-02-24 19:20:00,
2013-02-24 13:25:00,36.2,22.0,30.12,SSW,196,3.0,11.0,56,0.00,,,0.01,Wunderground v.1.15,2013-02-24 19:25:00,
2013-02-24 13:30:00,37.5,23.2,30.11,ESE,116,1.0,3.0,56,0.00,,,0.01,Wunderground v.1.15,2013-02-24 19:30:00,
2013-02-24 13:35:00,37.3,22.6,30.11,South,186,2.0,8.0,55,0.00,,,0.01,Wunderground v.1.15,2013-02-24 19:35:00,
2013-02-24 13:40:00,36.9,22.2,30.11,SSW,206,7.0,7.0,55,0.00,,,0.01,Wunderground v.1.15,2013-02-24 19:40:00,
2013-02-24 13:45:00,36.8,22.6,30.11,SSW,202,4.0,8.0,56,0.00,,,0.01,Wunderground v.1.15,2013-02-24 19:45:00,
2013-02-24 13:50:00,37.0,22.7,30.11,SSW,203,2.0,8.0,56,0.00,,,0.01,Wunderground v.1.15,2013-02-24 19:50:00,
2013-02-24 13:55:00,37.3,23.0,30.11,SW,219,6.0,8.0,56,0.00,,,0.01,Wunderground v.1.15,2013-02-24 19:55:00,
2013-02-24 14:00:00,36.9,23.1,30.11,SSW,209,6.0,7.0,57,0.00,,,0.01,Wunderground v.1.15,2013-02-24 20:00:00,
2013-02-24 14:05:00,36.9,23.1,30.11,WSW,250,3.0,8.0,57,0.00,,,0.01,Wunderground v.1.15,2013-02-24 20:05:00,
2013-02-24 14:11:00,37.5,24.1,30.11,SSE,158,2.0,5.0,58,0.00,,,0.01,Wunderground v.1.15,2013-02-24 20:11:00,
2013-02-24 14:16:00,37.8,23.9,30.11,SSE,157,2.0,8.0,57,0.00,,,0.01,Wunderground v.1.15,2013-02-24 20:16:00,
2013-02-24 14:21:00,37.8,23.9,30.11,WSW,253,1.0,2.0,57,0.00,,,0.01,Wunderground v.1.15,2013-02-24 20:21:00,
2013-02-24 14:26:00,37.6,23.7,30.11,SE,128,3.0,3.0,57,0.00,,,0.01,Wunderground v.1.15,2013-02-24 20:26:00,
2013-02-24 14:31:00,37.6,23.7,30.10,SSW,196,2.0,2.0,57,0.00,,,0.01,Wunderground v.1.15,2013-02-24 20:31:00,
2013-02-24 14:36:00,37.6,23.7,30.10,South,186,3.0,3.0,57,0.00,,,0.01,Wunderground v.1.15,2013-02-24 20:36:00,
2013-02-24 14:41:00,37.6,23.7,30.10,South,191,1.0,3.0,57,0.00,,,0.01,Wunderground v.1.15,2013-02-24 20:41:00,
2013-02-24 14:46:00,37.5,23.2,30.10,WSW,240,2.0,6.0,56,0.00,,,0.01,Wunderground v.1.15,2013-02-24 20:46:00,
2013-02-24 14:51:00,37.6,23.3,30.10,South,169,0.0,3.0,56,0.00,,,0.01,Wunderground v.1.15,2013-02-24 20:51:00,
2013-02-24 14:56:00,37.8,23.5,30.10,SSW,200,6.0,8.0,56,0.00,,,0.01,Wunderground v.1.15,2013-02-24 20:56:00,
2013-02-24 15:01:00,37.8,23.5,30.10,SW,229,1.0,5.0,56,0.00,,,0.01,Wunderground v.1.15,2013-02-24 21:01:00,
2013-02-24 15:06:00,37.8,23.5,30.10,SSW,210,7.0,11.0,56,0.00,,,0.01,Wunderground v.1.15,2013-02-24 21:06:00,
2013-02-24 15:11:00,37.8,23.5,30.10,SSE,158,7.0,7.0,56,0.00,,,0.01,Wunderground v.1.15,2013-02-24 21:11:00,
2013-02-24 15:16:00,37.8,23.5,30.10,SSW,200,6.0,8.0,56,0.00,,,0.01,Wunderground v.1.15,2013-02-24 21:16:00,
2013-02-24 15:21:00,37.8,23.5,30.10,SSW,196,5.0,5.0,56,0.00,,,0.01,Wunderground v.1.15,2013-02-24 21:21:00,
2013-02-24 15:26:00,37.8,23.5,30.10,South,171,2.0,7.0,56,0.00,,,0.01,Wunderground v.1.15,2013-02-24 21:26:00,
2013-02-24 15:31:00,37.5,23.6,30.10,South,186,3.0,5.0,57,0.00,,,0.01,Wunderground v.1.15,2013-02-24 21:31:00,
2013-02-24 15:36:00,37.5,24.1,30.10,SSW,196,10.0,10.0,58,0.00,,,0.01,Wunderground v.1.15,2013-02-24 21:36:00,
2013-02-24 15:41:00,38.2,24.3,30.10,WSW,250,5.0,7.0,57,0.00,,,0.01,Wunderground v.1.15,2013-02-24 21:41:00,
2013-02-24 15:46:00,38.2,24.7,30.10,SSE,157,7.0,7.0,58,0.00,,,0.01,Wunderground v.1.15,2013-02-24 21:46:00,
2013-02-24 15:51:00,37.3,24.3,30.10,South,181,2.0,3.0,59,0.00,,,0.01,Wunderground v.1.15,2013-02-24 21:51:00,
2013-02-24 15:56:00,37.5,24.1,30.10,SW,226,2.0,5.0,58,0.00,,,0.01,Wunderground v.1.15,2013-02-24 21:56:00,
2013-02-24 16:01:00,37.5,24.1,30.10,SSW,198,5.0,5.0,58,0.00,,,0.01,Wunderground v.1.15,2013-02-24 22:01:00,
2013-02-24 16:06:00,37.5,24.1,30.10,SSW,198,5.0,5.0,58,0.00,,,0.01,Wunderground v.1.15,2013-02-24 22:06:00,
2013-02-24 16:11:00,37.0,24.0,30.10,SSE,161,0.0,7.0,59,0.00,,,0.01,Wunderground v.1.15,2013-02-24 22:11:00,
2013-02-24 16:16:00,37.0,24.0,30.10,SSW,195,4.0,8.0,59,0.00,,,0.01,Wunderground v.1.15,2013-02-24 22:16:00,
2013-02-24 16:21:00,37.0,24.0,30.10,South,184,5.0,5.0,59,0.00,,,0.01,Wunderground v.1.15,2013-02-24 22:21:00,
2013-02-24 16:26:00,36.9,23.9,30.10,South,191,7.0,10.0,59,0.00,,,0.01,Wunderground v.1.15,2013-02-24 22:26:00,
2013-02-24 16:31:00,36.8,23.8,30.10,SSW,192,3.0,5.0,59,0.00,,,0.01,Wunderground v.1.15,2013-02-24 22:31:00,
2013-02-24 16:36:00,36.8,23.8,30.10,South,171,3.0,5.0,59,0.00,,,0.01,Wunderground v.1.15,2013-02-24 22:36:00,
2013-02-24 16:41:00,36.9,24.3,30.10,South,171,3.0,7.0,60,0.00,,,0.01,Wunderground v.1.15,2013-02-24 22:41:00,
2013-02-24 16:46:00,36.8,24.2,30.10,SW,226,2.0,7.0,60,0.00,,,0.01,Wunderground v.1.15,2013-02-24 22:46:00,
2013-02-24 16:51:00,36.8,24.6,30.10,SW,219,3.0,3.0,61,0.00,,,0.01,Wunderground v.1.15,2013-02-24 22:51:00,
2013-02-24 16:57:00,36.6,24.4,30.10,SSE,161,2.0,7.0,61,0.00,,,0.01,Wunderground v.1.15,2013-02-24 22:57:00,
2013-02-24 17:02:00,36.6,24.4,30.10,SSE,161,2.0,3.0,61,0.00,,,0.01,Wunderground v.1.15,2013-02-24 23:02:00,
2013-02-24 17:07:00,36.6,24.4,30.10,SSE,161,2.0,3.0,61,0.00,,,0.01,Wunderground v.1.15,2013-02-24 23:07:00,
2013-02-24 17:12:00,36.2,24.0,30.10,South,176,1.0,1.0,61,0.00,,,0.01,Wunderground v.1.15,2013-02-24 23:12:00,
2013-02-24 17:17:00,36.2,24.0,30.10,South,176,1.0,1.0,61,0.00,,,0.01,Wunderground v.1.15,2013-02-24 23:17:00,
2013-02-24 17:22:00,35.6,23.5,30.10,SSE,164,1.0,1.0,61,0.00,,,0.01,Wunderground v.1.15,2013-02-24 23:22:00,
2013-02-24 17:27:00,35.5,23.4,30.10,SSE,164,0.0,2.0,61,0.00,,,0.01,Wunderground v.1.15,2013-02-24 23:27:00,
2013-02-24 17:32:00,35.5,23.4,30.10,SSE,164,0.0,1.0,61,0.00,,,0.01,Wunderground v.1.15,2013-02-24 23:32:00,
2013-02-24 17:37:00,35.5,23.4,30.10,SSE,164,0.0,1.0,61,0.00,,,0.01,Wunderground v.1.15,2013-02-24 23:37:00,
2013-02-24 17:42:00,35.5,23.4,30.10,SSE,164,0.0,0.0,61,0.00,,,0.01,Wunderground v.1.15,2013-02-24 23:42:00,
2013-02-24 17:47:00,35.5,24.5,30.10,SSE,164,0.0,1.0,64,0.00,,,0.01,Wunderground v.1.15,2013-02-24 23:47:00,
2013-02-24 17:52:00,35.5,24.5,30.10,SSE,164,0.0,0.0,64,0.00,,,0.01,Wunderground v.1.15,2013-02-24 23:52:00,
2013-02-24 17:57:00,34.3,23.4,30.10,SSE,164,0.0,0.0,64,0.00,,,0.01,Wunderground v.1.15,2013-02-24 23:57:00,
2013-02-24 18:02:00,34.1,23.9,30.10,SSE,164,0.0,0.0,66,0.00,,,0.01,Wunderground v.1.15,2013-02-25 00:02:00,
2013-02-24 18:07:00,33.8,23.6,30.10,SSE,164,0.0,0.0,66,0.00,,,0.01,Wunderground v.1.15,2013-02-25 00:07:00,
2013-02-24 18:12:00,33.7,23.5,30.10,SSE,164,0.0,0.0,66,0.00,,,0.01,Wunderground v.1.15,2013-02-25 00:12:00,
2013-02-24 18:17:00,33.4,23.6,30.10,SSE,164,0.0,0.0,67,0.00,,,0.01,Wunderground v.1.15,2013-02-25 00:17:00,
2013-02-24 18:22:00,33.1,23.3,30.10,SSE,164,0.0,0.0,67,0.00,,,0.01,Wunderground v.1.15,2013-02-25 00:22:00,
2013-02-24 18:27:00,32.8,23.4,30.10,SSE,164,0.0,0.0,68,0.00,,,0.01,Wunderground v.1.15,2013-02-25 00:27:00,
2013-02-24 18:32:00,32.5,23.5,30.12,SSE,164,0.0,0.0,69,0.00,,,0.01,Wunderground v.1.15,2013-02-25 00:32:00,
2013-02-24 18:37:00,32.2,23.5,30.12,SSE,164,0.0,0.0,70,0.00,,,0.01,Wunderground v.1.15,2013-02-25 00:37:00,
2013-02-24 18:42:00,32.2,23.8,30.12,SSE,164,0.0,0.0,71,0.00,,,0.01,Wunderground v.1.15,2013-02-25 00:42:00,
2013-02-24 18:47:00,32.1,23.8,30.12,SSE,164,0.0,0.0,71,0.00,,,0.01,Wunderground v.1.15,2013-02-25 00:47:00,
2013-02-24 18:52:00,31.9,23.6,30.12,SSE,164,0.0,0.0,71,0.00,,,0.01,Wunderground v.1.15,2013-02-25 00:52:00,
2013-02-24 18:57:00,31.9,23.6,30.12,SSE,164,0.0,0.0,71,0.00,,,0.01,Wunderground v.1.15,2013-02-25 00:57:00,
2013-02-24 19:02:00,31.8,23.8,30.13,SSE,164,0.0,0.0,72,0.00,,,0.01,Wunderground v.1.15,2013-02-25 01:02:00,
2013-02-24 19:07:00,31.8,23.8,30.13,SSE,164,0.0,0.0,72,0.00,,,0.01,Wunderground v.1.15,2013-02-25 01:07:00,
2013-02-24 19:12:00,31.6,23.9,30.13,SSE,164,0.0,0.0,73,0.00,,,0.01,Wunderground v.1.15,2013-02-25 01:12:00,
2013-02-24 19:17:00,31.0,23.4,30.11,SSE,164,1.0,1.0,73,0.00,,,0.01,Wunderground v.1.15,2013-02-25 01:17:00,
2013-02-24 19:22:00,30.7,23.7,30.11,SSE,164,0.0,0.0,75,0.00,,,0.01,Wunderground v.1.15,2013-02-25 01:22:00,
2013-02-24 19:27:00,30.6,23.9,30.11,SSE,164,0.0,0.0,76,0.00,,,0.01,Wunderground v.1.15,2013-02-25 01:27:00,
2013-02-24 19:32:00,30.9,24.2,30.11,SSE,164,0.0,1.0,76,0.00,,,0.01,Wunderground v.1.15,2013-02-25 01:32:00,
2013-02-24 19:37:00,31.0,24.3,30.11,SSE,164,0.0,1.0,76,0.00,,,0.01,Wunderground v.1.15,2013-02-25 01:37:00,
2013-02-24 19:42:00,31.2,24.5,30.11,SSE,164,0.0,1.0,76,0.00,,,0.01,Wunderground v.1.15,2013-02-25 01:42:00,
2013-02-24 19:47:00,31.0,24.0,30.12,SSE,164,0.0,1.0,75,0.00,,,0.01,Wunderground v.1.15,2013-02-25 01:47:00,
2013-02-24 19:52:00,31.0,24.3,30.12,SSE,164,0.0,0.0,76,0.00,,,0.01,Wunderground v.1.15,2013-02-25 01:52:00,
2013-02-24 19:57:00,31.0,24.3,30.12,SSE,164,0.0,0.0,76,0.00,,,0.01,Wunderground v.1.15,2013-02-25 01:57:00,
2013-02-24 20:02:00,31.2,24.5,30.12,SSE,164,0.0,0.0,76,0.00,,,0.01,Wunderground v.1.15,2013-02-25 02:02:00,
2013-02-24 20:07:00,31.2,24.5,30.12,SSE,164,0.0,0.0,76,0.00,,,0.01,Wunderground v.1.15,2013-02-25 02:07:00,
2013-02-24 20:12:00,31.0,24.3,30.12,SSE,164,0.0,0.0,76,0.00,,,0.01,Wunderground v.1.15,2013-02-25 02:12:00,
2013-02-24 20:17:00,31.0,24.3,30.11,SSE,164,0.0,1.0,76,0.00,,,0.01,Wunderground v.1.15,2013-02-25 02:17:00,
2013-02-24 20:22:00,31.0,24.6,30.11,SSE,164,0.0,0.0,77,0.00,,,0.01,Wunderground v.1.15,2013-02-25 02:22:00,
2013-02-24 20:27:00,31.0,24.6,30.11,SSE,164,0.0,0.0,77,0.00,,,0.01,Wunderground v.1.15,2013-02-25 02:27:00,
2013-02-24 20:32:00,31.0,24.6,30.11,SSE,164,0.0,0.0,77,0.00,,,0.01,Wunderground v.1.15,2013-02-25 02:32:00,
2013-02-24 20:37:00,30.9,24.5,30.11,SSE,164,0.0,0.0,77,0.00,,,0.01,Wunderground v.1.15,2013-02-25 02:37:00,
2013-02-24 20:42:00,30.7,24.3,30.11,SSE,164,0.0,0.0,77,0.00,,,0.01,Wunderground v.1.15,2013-02-25 02:42:00,
2013-02-24 20:47:00,30.6,24.6,30.12,SSE,164,0.0,0.0,78,0.00,,,0.01,Wunderground v.1.15,2013-02-25 02:47:00,
2013-02-24 20:52:00,30.6,24.6,30.12,SSE,164,0.0,0.0,78,0.00,,,0.01,Wunderground v.1.15,2013-02-25 02:52:00,
2013-02-24 20:57:00,30.6,24.9,30.12,SSE,164,0.0,0.0,79,0.00,,,0.01,Wunderground v.1.15,2013-02-25 02:57:00,
2013-02-24 21:02:00,30.7,25.0,30.12,SSE,164,0.0,0.0,79,0.00,,,0.01,Wunderground v.1.15,2013-02-25 03:02:00,
2013-02-24 21:07:00,30.7,25.0,30.12,SSE,164,0.0,0.0,79,0.00,,,0.01,Wunderground v.1.15,2013-02-25 03:07:00,
2013-02-24 21:12:00,30.7,25.0,30.12,SSE,164,0.0,0.0,79,0.00,,,0.01,Wunderground v.1.15,2013-02-25 03:12:00,
2013-02-24 21:17:00,30.7,25.0,30.12,SSE,164,0.0,0.0,79,0.00,,,0.01,Wunderground v.1.15,2013-02-25 03:17:00,
2013-02-24 21:22:00,30.6,24.9,30.12,SSE,164,0.0,0.0,79,0.00,,,0.01,Wunderground v.1.15,2013-02-25 03:22:00,
2013-02-24 21:27:00,30.6,25.2,30.12,SSE,164,0.0,1.0,80,0.00,,,0.01,Wunderground v.1.15,2013-02-25 03:27:00,
2013-02-24 21:32:00,30.6,24.9,30.13,SSE,164,0.0,1.0,79,0.00,,,0.01,Wunderground v.1.15,2013-02-25 03:32:00,
2013-02-24 21:37:00,30.4,25.3,30.13,SSE,164,0.0,1.0,81,0.00,,,0.01,Wunderground v.1.15,2013-02-25 03:37:00,
2013-02-24 21:42:00,30.1,24.7,30.13,SSE,164,0.0,1.0,80,0.00,,,0.01,Wunderground v.1.15,2013-02-25 03:42:00,
2013-02-24 21:47:00,29.8,24.7,30.12,SSE,164,0.0,1.0,81,0.00,,,0.01,Wunderground v.1.15,2013-02-25 03:47:00,
2013-02-24 21:52:00,29.7,24.9,30.12,SSE,164,0.0,0.0,82,0.00,,,0.01,Wunderground v.1.15,2013-02-25 03:52:00,
2013-02-24 21:57:00,29.4,24.6,30.12,SSE,161,0.0,1.0,82,0.00,,,0.01,Wunderground v.1.15,2013-02-25 03:57:00,
2013-02-24 22:02:00,29.4,24.6,30.12,SSE,160,0.0,1.0,82,0.00,,,0.01,Wunderground v.1.15,2013-02-25 04:02:00,
2013-02-24 22:07:00,29.5,25.0,30.12,SSE,160,0.0,1.0,83,0.00,,,0.01,Wunderground v.1.15,2013-02-25 04:07:00,
2013-02-24 22:12:00,29.7,25.2,30.12,SSE,160,0.0,1.0,83,0.00,,,0.01,Wunderground v.1.15,2013-02-25 04:12:00,
2013-02-24 22:17:00,29.8,25.3,30.12,SSE,160,0.0,2.0,83,0.00,,,0.01,Wunderground v.1.15,2013-02-25 04:17:00,
2013-02-24 22:22:00,29.8,25.3,30.12,SSE,160,0.0,0.0,83,0.00,,,0.01,Wunderground v.1.15,2013-02-25 04:22:00,
2013-02-24 22:27:00,29.8,25.3,30.12,SSE,160,0.0,2.0,83,0.00,,,0.01,Wunderground v.1.15,2013-02-25 04:27:00,
2013-02-24 22:32:00,29.8,25.3,30.12,SSE,160,0.0,1.0,83,0.00,,,0.01,Wunderground v.1.15,2013-02-25 04:32:00,
2013-02-24 22:37:00,29.7,25.2,30.12,SSE,160,0.0,2.0,83,0.00,,,0.01,Wunderground v.1.15,2013-02-25 04:37:00,
2013-02-24 22:42:00,29.5,25.0,30.12,SSE,160,1.0,2.0,83,0.00,,,0.01,Wunderground v.1.15,2013-02-25 04:42:00,
2013-02-24 22:47:00,29.4,25.2,30.12,SSE,160,0.0,2.0,84,0.00,,,0.01,Wunderground v.1.15,2013-02-25 04:47:00,
2013-02-24 22:52:00,29.4,25.2,30.12,SSE,158,0.0,1.0,84,0.00,,,0.01,Wunderground v.1.15,2013-02-25 04:52:00,
2013-02-24 22:57:00,29.1,24.9,30.12,SSE,158,0.0,1.0,84,0.00,,,0.01,Wunderground v.1.15,2013-02-25 04:57:00,
2013-02-24 23:00:00,29.0,25.1,30.12,SSE,157,0.0,0.0,85,0.00,,,0.01,Wunderground v.1.15,2013-02-25 05:00:00,
2013-02-24 23:05:00,28.8,24.9,30.12,SSE,152,0.0,2.0,85,0.00,,,0.01,Wunderground v.1.15,2013-02-25 05:05:00,
2013-02-24 23:10:00,28.7,24.8,30.12,SSE,152,0.0,0.0,85,0.00,,,0.01,Wunderground v.1.15,2013-02-25 05:10:00,
2013-02-24 23:15:00,28.5,24.6,30.12,SSE,152,0.0,0.0,85,0.00,,,0.01,Wunderground v.1.15,2013-02-25 05:15:00,
2013-02-24 23:20:00,28.1,24.2,30.12,SSE,152,0.0,0.0,85,0.00,,,0.01,Wunderground v.1.15,2013-02-25 05:20:00,
2013-02-24 23:25:00,27.8,24.2,30.12,SSE,152,0.0,0.0,86,0.00,,,0.01,Wunderground v.1.15,2013-02-25 05:25:00,
2013-02-24 23:30:00,27.6,24.2,30.12,SSE,152,0.0,0.0,87,0.00,,,0.01,Wunderground v.1.15,2013-02-25 05:30:00,
2013-02-24 23:35:00,27.8,24.7,30.12,SSE,152,0.0,0.0,88,0.00,,,0.01,Wunderground v.1.15,2013-02-25 05:35:00,
2013-02-24 23:40:00,28.1,25.0,30.12,ESE,123,0.0,2.0,88,0.00,,,0.01,Wunderground v.1.15,2013-02-25 05:40:00,
2013-02-24 23:45:00,28.4,25.3,30.12,SE,124,0.0,2.0,88,0.00,,,0.01,Wunderground v.1.15,2013-02-25 05:45:00,
2013-02-24 23:50:00,28.5,25.4,30.12,ESE,123,0.0,0.0,88,0.00,,,0.01,Wunderground v.1.15,2013-02-25 05:50:00,
2013-02-24 23:55:00,28.7,25.3,30.12,ESE,119,1.0,2.0,87,0.00,,,0.01,Wunderground v.1.15,2013-02-25 05:55:00,